Location: Newark
(39.6867°N, 100.6772°W)
Time: 01:50:56
(UTC+00:00)

Vanguard 1 Rocket - Pass Details

Date: 30 October 2019
Orbit: 651 x 4225 km, 34.3° (Epoch: 14 November)

Event Time Altitude Azimuth Distance (km) Brightness Sun altitude
Rises 12:58:22 0° 205° (SSW) 3,535 10.3 -2.8°
Reaches altitude 10° 13:00:56 10° 191° (S) 2,878 10.1 -2.3°
Maximum altitude 13:06:38 26° 137° (SE) 2,575 10.7 -1.2°
Drops below altitude 10° 13:15:39 10° 88° (E) 4,741 12.6 0.4°
Sets 13:21:28 0° 78° (ENE) 6,436 12.9 1.5°
